Weather Roundup
Issued by NWS

Home | Current Version | Previous Version | Text Only | Print | Product List | Glossary On
Versions: 1 2 3 4 5 6 7 8 9 10 11 12 13 14 15 16 17 18 19 20 21 22 23 24 25 26 27 28 29 30 31 32 33 34 35 36 37 38 39 40 41 42 43 44 45 46 47 48 49 50
000
NZUS93 KARX 011610
HRRWXR

CURRENT HOURLY OBSERVATIONS ACROSS
MUCH OF THE UPPER MISSISSIPPI VALLEY
NATIONAL WEATHER SERVICE LA CROSSE WI
1100 AM CDT WED APR 01 2015


...SOUTHEAST MINNESOTA...


CITY           SKY/WX    TMP DP  RH WIND       PRES   REMARKS
ROCHESTER      SUNNY     62  41  46 S26       29.79F
ROCHESTER/MAYO FAIR      63  37  37 S16G23    29.78F
WINONA         SUNNY     59  36  41 SE12      29.82F
AUSTIN         SUNNY     63  39  42 S22       29.78F
ALBERT LEA     SUNNY     64  36  34 S15G24    29.75F
DODGE CENTER   SUNNY     63  43  48 S22G32    29.76F
PRESTON        SUNNY     61  38  42 S17G24    29.82F
OWATONNA       SUNNY     64  37  36 S18G26    29.73F
FARIBAULT      SUNNY     64  37  36 S22G30    29.73F
$$

...ELSEWHERE IN MINNESOTA...


CITY           SKY/WX    TMP DP  RH WIND       PRES   REMARKS
MINNEAPOLIS    PTSUNNY   64  36  35 SE14      29.70F
INTNL FALLS    MOSUNNY   49  30  48 SE16G26   29.58F
DULUTH         MOSUNNY   38  31  76 E18G26    29.71F WCI  28
RED WING       MOSUNNY   63  34  34 SE10      29.75F
REDWOOD FALLS  CLOUDY    69  34  27 S25G44    29.57F
MANKATO        SUNNY     68  36  30 S24G38    29.69F
WORTHINGTON    SUNNY     70  34  26 S29G48    29.66F
FAIRMONT       MOSUNNY   70  27  19 S25G38    29.69F
$$

...SOUTHWEST WISCONSIN...


CITY           SKY/WX    TMP DP  RH WIND       PRES   REMARKS
LA CROSSE      SUNNY     61  33  35 S14       29.86F
PRAIRIE DU CHI SUNNY     64  32  30 S6        29.89F
BOSCOBEL       SUNNY     63  34  33 S7        29.92F
LONE ROCK      SUNNY     60  36  40 E14       29.94F
PLATTEVILLE    SUNNY     64  35  34 S14       29.94F
FORT MC COY    SUNNY     62  30  30 S13G18    29.90F
CAMP DOUGLAS   MOSUNNY   57  34  41 SE14      29.91F
VIROQUA        FAIR      59  34  38 SE13      29.90F
WIS DELLS      SUNNY     56  32  39 SE10      29.96F
$$

...ELSEWHERE IN WISCONSIN...


CITY           SKY/WX    TMP DP  RH WIND       PRES   REMARKS
MILWAUKEE      MOSUNNY   49  33  54 SE10      30.07S
MADISON        MOSUNNY   57  35  43 SE10      29.99F
GREEN BAY      PTSUNNY   44  36  73 SE9       30.04F
EAU CLAIRE     SUNNY     58  32  37 S14G26    29.81F
BLACK RVR FLS    N/A     61  30  31 S9        29.88F
MEDFORD        PTSUNNY   47  34  59 SE15G22   29.90F
WAUSAU         MOSUNNY   48  33  56 SE15      29.94F
WIS RAPIDS     MOSUNNY   55  29  36 SE14G20   29.95F
MARSHFIELD     MOSUNNY   53  32  44 SE14G22   29.92F
RICE LAKE      SUNNY     53  32  45 SE16G24   29.80F
$$

...NORTHEAST IOWA...


CITY           SKY/WX    TMP DP  RH WIND       PRES   REMARKS
DECORAH        SUNNY     63  37  39 S12G21    29.85F
MASON CITY     SUNNY     68  37  32 S20G28    29.79F
CHARLES CITY   SUNNY     66  39  37 S17G25    29.83F
OELWEIN        SUNNY     66  37  34 S17G24    29.88F
$$

...ELSEWHERE IN IOWA...


CITY           SKY/WX    TMP DP  RH WIND       PRES   REMARKS
DES MOINES     MOSUNNY   72  34  24 S28G39    29.85S
IOWA CITY      SUNNY     69  36  29 S16G24    29.94F
FORT DODGE     SUNNY     72  37  28 S28G37    29.80F
$$

...NORTHERN ILLINOIS...


CITY           SKY/WX    TMP DP  RH WIND       PRES   REMARKS
CHICAGO-OHARE  MOSUNNY   59  37  44 S7        30.05S
CHICAGO-MIDWAY MOSUNNY   61  38  42 SW13      30.06F
MOLINE         SUNNY     71  32  23 S15G24    29.94F
ROCKFORD       MOSUNNY   63  38  39 SE8       30.02F
PEORIA         SUNNY     66  39  37 S10       30.00F
$$

NOTE: "FAIR" INDICATES FEW OR NO CLOUDS BELOW 12,000 FEET WITH NO
SIGNIFICANT WEATHER AND/OR OBSTRUCTIONS TO VISIBILITY. WIND
SPEEDS ARE IN MILES-PER-HOUR.



USA.gov is the U.S. government's official web portal to all federal, state and local government web resources and services.